EW8041 Weather Reports


Display with metric or nautical units.
time (UTC)temp
F
wind
direction
speed
MPH
gust
MPH
rain 1hr
in
rain 24hr
in
rain mn
in
humidity
%
barometer
mb
20260903022521 82 31 0.0 1.0 0.00 0.00 0.00 74 1016.6
20260903021516 83 31 0.0 1.0 0.00 0.00 0.00 74 1016.6
20260903020532 83 31 0.0 1.0 0.00 0.00 0.00 73 1016.8
20260903015528 83 31 0.0 1.0 0.00 0.00 0.00 72 1016.7
20260903014523 84 0.0 0.0 0.00 0.00 0.00 72 1016.5
20260903013519 84 31 0.0 1.0 0.00 0.00 0.00 71 1016.3
20260903012536 85 31 0.0 1.0 0.00 0.00 0.00 70 1016.4
20260903011531 85 0.0 0.0 0.00 0.00 0.00 69 1016.2
20260903010527 86 31 0.0 1.0 0.00 0.00 0.00 68 1016.1
20260903005523 87 0.0 0.0 0.00 0.00 0.00 67 1016.1
20260903004518 87 31 0.0 1.0 0.00 0.00 0.00 66 1016.0
20260903003535 88 31 1.0 2.0 0.00 0.00 0.00 65 1015.9
20260903002530 89 31 1.0 1.0 0.00 0.00 0.00 64 1016.0
20260903001526 90 31 1.0 1.0 0.00 0.00 0.00 63 1015.9
20260903000522 90 31 0.0 1.0 0.00 0.00 0.00 61 1015.8
20260902235517 91 0.0 0.0 0.00 0.00 0.00 60 1015.8
20260902234552 92 31 0.0 1.0 0.00 0.00 0.00 59 1015.8
20260902233528 93 31 0.0 1.0 0.00 0.00 0.00 58 1015.9
20260902232524 94 31 1.0 1.0 0.00 0.00 0.00 57 1015.9
20260902231540 94 31 1.0 2.0 0.00 0.00 0.00 56 1016.0
20260902230536 95 31 1.0 2.0 0.00 0.00 0.00 56 1015.9
20260902225532 95 31 1.0 1.0 0.00 0.00 0.00 55 1016.1
20260902224528 96 31 1.0 2.0 0.00 0.00 0.00 55 1015.9
20260902223524 96 31 0.0 1.0 0.00 0.00 0.00 55 1015.9
20260902222520 96 31 1.0 2.0 0.00 0.00 0.00 54 1016.0
20260902221515 96 31 1.0 3.0 0.00 0.00 0.00 55 1016.0
20260902220532 96 31 1.0 3.0 0.00 0.00 0.00 54 1016.0
20260902215527 97 32 1.0 2.0 0.00 0.00 0.00 54 1016.1
20260902214523 97 41 1.0 2.0 0.00 0.00 0.00 54 1016.1
20260902213519 97 41 1.0 3.0 0.00 0.00 0.00 53 1016.2
20260902212534 97 49 1.0 3.0 0.00 0.00 0.00 52 1016.2
20260902211531 98 22 3.0 6.0 0.00 0.00 0.00 52 1016.4
20260902210546 99 342 1.0 3.0 0.00 0.00 0.00 52 1016.3
20260902205522 100 342 1.0 2.0 0.00 0.00 0.00 51 1016.5
20260902204518 99 342 1.0 3.0 0.00 0.00 0.00 52 1016.5
20260902203534 99 342 2.0 4.0 0.00 0.00 0.00 50 1016.6
20260902202530 99 29 2.0 4.0 0.00 0.00 0.00 51 1016.6
20260902201527 99 30 1.0 3.0 0.00 0.00 0.00 52 1016.9
20260902200522 99 30 1.0 3.0 0.00 0.00 0.00 53 1016.9
20260902195518 99 30 1.0 3.0 0.00 0.00 0.00 54 1017.0
20260902194554 98 30 1.0 3.0 0.00 0.00 0.00 55 1017.2
20260902193530 97 29 2.0 4.0 0.00 0.00 0.00 57 1017.5
20260902192546 97 29 2.0 3.0 0.00 0.00 0.00 58 1017.5
20260902191522 96 60 1.0 2.0 0.00 0.00 0.00 58 1017.6
20260902190518 96 53 1.0 3.0 0.00 0.00 0.00 60 1017.7
20260902185534 95 68 1.0 4.0 0.00 0.00 0.00 60 1017.9
20260902184530 94 53 1.0 4.0 0.00 0.00 0.00 60 1017.9
20260902183526 95 36 1.0 2.0 0.00 0.00 0.00 59 1018.0
20260902182522 96 36 0.0 2.0 0.00 0.00 0.00 59 1018.2
20260902181558 97 63 2.0 7.0 0.00 0.00 0.00 60 1018.3
20260902180534 97 67 1.0 6.0 0.00 0.00 0.00 60 1018.2
20260902175530 97 76 1.0 3.0 0.00 0.00 0.00 62 1018.4
20260902174526 96 68 1.0 4.0 0.00 0.00 0.00 61 1018.5
20260902173522 95 69 1.0 3.0 0.00 0.00 0.00 63 1018.7
20260902172538 96 69 1.0 2.0 0.00 0.00 0.00 63 1019.0
20260902171554 95 70 1.0 4.0 0.00 0.00 0.00 64 1019.1
20260902170530 94 78 2.0 3.0 0.00 0.00 0.00 66 1019.2
20260902165546 93 72 1.0 3.0 0.00 0.00 0.00 66 1019.4
20260902164522 94 75 1.0 3.0 0.00 0.00 0.00 67 1019.5
20260902163517 94 80 1.0 3.0 0.00 0.00 0.00 68 1019.7
20260902162614 94 80 1.0 3.0 0.00 0.00 0.00 67 1019.8
20260902161529 93 80 1.0 4.0 0.00 0.00 0.00 70 1019.9
20260902160525 92 80 1.0 2.0 0.00 0.00 0.00 71 1019.8
20260902155521 92 79 1.0 3.0 0.00 0.00 0.00 72 1019.9
20260902154517 92 81 2.0 4.0 0.00 0.00 0.00 74 1020.0
20260902153553 91 135 1.0 3.0 0.00 0.00 0.00 73 1020.0
20260902152529 91 111 0.0 1.0 0.00 0.00 0.00 74 1020.0
20260902151525 90 111 1.0 2.0 0.00 0.00 0.00 78 1020.1
20260902145517 89 111 1.0 2.0 0.00 0.00 0.00 81 1019.9
20260902144533 88 110 1.0 2.0 0.00 0.00 0.00 83 1019.8
20260902143528 87 111 0.0 2.0 0.00 0.00 0.00 87 1019.8
20260902142525 86 111 1.0 2.0 0.00 0.00 0.00 89 1019.7
20260902141521 85 111 0.0 1.0 0.00 0.00 0.00 89 1019.7
20260902140517 84 111 0.0 1.0 0.00 0.00 0.00 91 1019.9
20260902135532 83 111 0.0 1.0 0.00 0.00 0.00 92 1019.7
20260902134549 81 0.0 0.0 0.00 0.00 0.00 92 1019.7
20260902133524 80 0.0 0.0 0.00 0.00 0.00 93 1019.9
20260902132520 79 111 0.0 1.0 0.00 0.00 0.00 93 1019.8
20260902131516 78 0.0 0.0 0.00 0.00 0.00 94 1019.8
20260902130533 77 110 0.0 1.0 0.00 0.00 0.00 94 1019.5
20260902125528 76 0.0 0.0 0.00 0.00 0.00 94 1019.6
20260902124525 75 110 0.0 1.0 0.00 0.00 0.00 95 1019.6
20260902123521 74 0.0 0.0 0.00 0.00 0.00 94 1019.7
20260902122536 73 0.0 0.0 0.00 0.00 0.00 94 1019.6
20260902121532 73 0.0 0.0 0.00 0.00 0.00 94 1019.4
20260902120528 73 110 0.0 1.0 0.00 0.00 0.00 94 1019.4
20260902115524 73 111 0.0 1.0 0.00 0.00 0.00 94 1019.2
20260902114520 72 0.0 0.0 0.00 0.00 0.00 93 1019.1
20260902113516 72 0.0 0.0 0.00 0.00 0.00 93 1018.8
20260902112532 72 0.0 0.0 0.00 0.00 0.00 93 1018.9
20260902111528 72 0.0 0.0 0.00 0.00 0.00 93 1018.8
20260902110544 73 0.0 0.0 0.00 0.00 0.00 93 1018.7
20260902105520 73 0.0 0.0 0.00 0.00 0.00 92 1018.7
20260902104516 73 0.0 0.0 0.00 0.00 0.00 92 1018.5
20260902103552 73 0.0 0.0 0.00 0.00 0.00 92 1018.6
20260902102529 73 0.0 0.0 0.00 0.00 0.00 92 1018.5
20260902101523 73 113 0.0 1.0 0.00 0.00 0.00 92 1018.4
20260902100519 73 0.0 0.0 0.00 0.00 0.00 92 1018.4
20260902095536 73 0.0 0.0 0.00 0.00 0.00 91 1018.3
20260902094611 73 0.0 0.0 0.00 0.00 0.00 91 1018.1
20260902093527 73 120 1.0 2.0 0.00 0.00 0.00 91 1018.1
20260902092523 73 0.0 0.0 0.00 0.00 0.00 91 1018.0
20260902091519 73 0.0 0.0 0.00 0.00 0.00 90 1018.1
20260902090535 73 0.0 0.0 0.00 0.00 0.00 90 1017.8
20260902085531 73 123 0.0 1.0 0.00 0.00 0.00 90 1017.8
20260902084527 73 0.0 0.0 0.00 0.00 0.00 90 1017.7
20260902083523 74 0.0 0.0 0.00 0.00 0.00 89 1017.7
20260902082518 74 0.0 0.0 0.00 0.00 0.00 89 1017.6
20260902081534 74 0.0 0.0 0.00 0.00 0.00 89 1017.5
20260902080530 74 0.0 0.0 0.00 0.00 0.00 89 1017.4
20260902075526 74 123 1.0 2.0 0.00 0.00 0.00 89 1017.2
20260902074522 74 0.0 0.0 0.00 0.00 0.00 88 1017.2
20260902073518 74 0.0 0.0 0.00 0.00 0.00 88 1017.2
20260902072534 74 0.0 0.0 0.00 0.00 0.00 88 1017.3
20260902071530 74 0.0 0.0 0.00 0.00 0.00 87 1017.4
20260902070526 75 0.0 0.0 0.00 0.00 0.00 87 1017.5
20260902065522 75 0.0 0.0 0.00 0.00 0.00 87 1017.5
20260902064518 75 126 0.0 1.0 0.00 0.00 0.00 87 1017.7
20260902063534 75 126 0.0 1.0 0.00 0.00 0.00 86 1017.6
20260902062530 75 126 0.0 1.0 0.00 0.00 0.00 86 1017.7
20260902061526 76 126 0.0 1.0 0.00 0.00 0.00 86 1017.8
20260902060522 76 0.0 0.0 0.00 0.00 0.00 85 1017.7
20260902055517 76 126 0.0 1.0 0.00 0.00 0.00 85 1017.8
20260902054554 76 0.0 0.0 0.00 0.00 0.00 85 1017.9
20260902053530 76 126 0.0 1.0 0.00 0.00 0.00 84 1018.0
20260902052525 76 0.0 0.0 0.00 0.00 0.00 84 1018.0
20260902051522 77 0.0 0.0 0.00 0.00 0.00 84 1017.8
20260902050518 77 0.0 0.0 0.00 0.00 0.00 83 1017.9
20260902045534 77 0.0 0.0 0.00 0.00 0.00 83 1018.0
20260902044530 77 0.0 0.0 0.00 0.00 0.00 82 1018.0
20260902043526 77 0.0 0.0 0.00 0.00 0.00 82 1018.0
20260902042522 78 0.0 0.0 0.00 0.00 0.00 81 1018.0
20260902041538 78 0.0 0.0 0.00 0.00 0.00 81 1018.0
20260902040554 78 0.0 0.0 0.00 0.00 0.00 80 1018.0
20260902035550 79 0.0 0.0 0.00 0.00 0.00 80 1018.0
20260902034526 79 0.0 0.0 0.00 0.00 0.00 79 1017.9
20260902033522 79 0.0 0.0 0.00 0.00 0.00 79 1017.9
20260902032538 79 126 0.0 1.0 0.00 0.00 0.00 78 1017.9
20260902031534 80 0.0 0.0 0.00 0.00 0.00 78 1018.0
20260902030530 80 126 0.0 1.0 0.00 0.00 0.00 77 1018.0
20260902025526 80 126 0.0 1.0 0.00 0.00 0.00 77 1018.1
20260902024522 81 126 0.0 1.0 0.00 0.00 0.00 76 1018.0
20260902023517 81 0.0 0.0 0.00 0.00 0.00 75 1017.9